LEMUR-2-EMMACULATE (55037 NORAD) Tracking and Keplerian Element Data

This shows tracking and keplerian element data for the satellite.

Feedback or suggestion? Click here.




ElementValue
Catalog55037
NameLEMUR-2-EMMACULATE
Epoch Orbit1250
Epoch Day85.16486104
Epoch Year2023
RAAN146.187
Inclination97.4911
Eccentricity0.0013635
Argument of Perigee290.0821
Mean Anonmoly69.8944
Mean Motion15.17228703
Decay Rate0.00028624
L11 55037U 23001AE 23085.16486104 .00028624 00000+0 14348-2 0 9997
L22 55037 97.4911 146.1870 0013635 290.0821 69.8944 15.17228703 12504



Live tracking and technical data element details for LEMUR-2-EMMACULATE (NORAD 55037). LEMUR-2-EMMACULATE can be tracked NOW for your location showing map with azimuth and elevation plus other details from your city location.







IsCatalogInMostPopularTable: catalog: 55037, numindb: 8
Update: records affected: 1



GetName: 55037 LEMUR-2-EMMACULATE

Hit Count: updated at: Mon, 27 Mar 2023 07:42:28 GMT